Find Starlink 32783

NORAD ID: 62606 Int'l Des: 2025-008 Owner: SPXS Country: US Constellation: starlink operational
LEOCIRCULAR

当前视图

正在加载3D地球...

About Starlink 32783

Starlink 32783 (NORAD 62606) is a starlink constellation satellite (v2 mini) launched Jan 13, 2025 by SPXS of US. It operates in LEO, CIRCULAR orbit with a mass of 730.00 kg.

关于 Starlink 32783

正在加载描述...

即将过境

Passes for default location (London). Set your location on the main map for personalized predictions.

高度历史

Loading altitude history...

两行轨道根数

1 62606U 25008V 26169.18029341 .00013221 00000-0 48903-3 0 9993
2 62606 43.0048 70.3570 0001466 276.1580 83.9104 15.27586202 80932
Epoch: Jun 18, 2026 • Age: 9 hours

当前状态

高度 491.9 km
速度 7.62 km/s
星下点 -34.61°S, 88.46°W
发射日期 Jan 13, 2025
运行时间 1.4 years
类型 internet

技术详情

分类 Payload
质量 730.00 kg
干质量 700.00 kg
总质量 730.00 kg
长度 0.30 m
直径 4.10 m
跨度 29.00 m
形状 Box + pan
制造商 SPXS
平台类型 Starlink V2M
阶段状态 In Orbit
所有者/国家 SPXS/US

Most Searched